[[{"header":{"parameterUnit":"m.s-1","parameterCategory":1,"la1":30.2991,"la2":30.254,"lo1":-89.0895,"lo2":-89.0444,"dy":0.0017,"dx":0.0017,"nx":28,"ny":28,"refTime":"2024-03-20T21:00:00:Z","depth":0,"parameterNumber":2,"parameterNumberName":"U-component_of_WINDS"},"data":[0,0,0,0,0,0,0,0,0,0,0,0,0,0,0,0,0,0,0,0,0,0,0,0,0,0,0,0,0,0,0,0,0,0,0,0,0,0,0,0,0,0,0,0,0,0,0,0,0,0,0,0,0,0,0,0,0,0,1.8346,1.8347,0,1.8402,1.8403,1.8403,1.8388,1.8386,1.8385,1.8384,1.8439,1.8441,1.8444,0,0,0,0,0,0,0,0,0,0,0,0,0,1.8223,1.8225,1.8346,1.8347,1.8348,1.8402,1.8403,1.8403,1.8388,1.8386,1.8385,1.8384,1.8438,1.8441,1.8444,0,0,0,0,0,0,0,0,0,0,0,0,0,1.8277,1.8226,1.8346,1.8346,1.8347,1.8402,1.8403,1.8403,1.8388,1.8386,1.8385,1.8383,1.8437,1.8441,1.8445,1.8502,0,0,1.8456,1.8458,0,0,0,0,0,0,0,0,1.8274,1.8282,1.8346,1.8346,1.8347,1.8386,1.8379,1.8436,1.8388,1.8372,1.8384,1.8382,1.8423,1.8427,1.8442,1.8504,1.8506,1.8456,1.8459,1.846,1.8461,0,0,0,0,0,0,0,1.827,1.8279,1.8368,1.8347,1.8348,1.8342,1.8348,1.839,1.8406,1.8374,1.8373,1.838,1.8423,1.8438,1.8443,1.8507,1.8456,1.846,1.8462,1.8463,1.8616,1.8618,0,0,0,0,0,0,1.8266,1.8276,1.8366,1.837,1.8306,1.8346,1.8353,1.8375,1.8406,1.8409,1.8381,1.8379,1.8432,1.8438,1.8445,1.8511,1.846,1.8464,1.8466,1.8614,1.8616,1.8618,0,0,0,0,0,0,1.8264,1.8275,1.8364,1.8323,1.8334,1.835,1.8376,1.8377,1.8392,1.8411,1.8414,1.8394,1.8431,1.8439,1.8487,1.8512,1.8465,1.8469,1.8612,1.8615,1.8617,1.8645,0,0,0,0,0,0,1.826,1.8274,1.8296,1.8323,1.8336,1.8407,1.8377,1.838,1.8399,1.8397,1.8424,1.8427,1.8431,1.8481,1.8491,1.8517,1.8472,1.861,1.8613,1.8617,1.8642,1.8648,1.8654,0,0,0,0,0,1.8256,1.8302,1.8298,1.8309,1.8365,1.8408,1.8415,1.8419,1.8402,1.8424,1.8435,1.8426,1.8509,1.8486,1.8497,1.8524,1.8608,1.8612,1.8616,1.8639,1.8647,1.8654,0,0,0,0,0,0,1.8278,1.8306,1.8301,1.8358,1.8381,1.8406,1.8434,1.8428,1.8456,1.8452,1.8456,1.8462,1.851,1.8522,1.8497,1.858,1.8556,1.8562,1.8569,1.8577,1.8583,1.8578,1.8475,0,0,0,0,0,1.8289,1.8323,1.8345,1.8393,1.8405,1.8417,1.8436,1.8438,1.8461,1.847,1.8486,1.8508,1.8539,1.8559,1.8589,1.8644,1.8648,1.8668,1.8674,1.8679,1.8684,1.8711,1.8719,1.8632,1.8632,1.8632,0,0,1.8313,1.8333,1.8354,1.8398,1.8416,1.8449,1.8426,1.8463,1.8486,1.8476,1.8521,1.8533,1.8558,1.8609,1.8633,1.8621,1.8709,1.8684,1.8688,1.869,1.8716,1.8724,1.8732,1.8634,1.8634,1.8633,0,0,1.8373,1.8392,1.8433,1.8451,1.8478,1.8486,1.8496,1.8521,1.8529,1.8575,1.8566,1.8595,1.8649,1.8666,1.8682,1.8746,1.8738,1.8756,1.8787,1.8813,1.882,1.8826,1.8846,1.8854,1.8761,1.8761,1.8761,0,1.8399,1.845,1.8454,1.8491,1.851,1.8502,1.8542,1.8559,1.8594,1.8607,1.8594,1.8659,1.8676,1.8729,1.8745,1.8759,1.8768,1.8752,1.8819,1.8825,1.8831,1.885,1.8858,1.8763,1.8763,1.8763,1.8762,0,1.8478,1.8514,1.8543,1.8577,1.8599,1.8637,1.8646,1.8668,1.8667,1.8675,1.872,1.874,1.8772,1.8785,1.8785,1.8838,1.883,1.8818,1.8794,1.8841,1.8859,1.8867,1.8766,1.8765,1.8764,1.8764,0,0,1.8553,1.8589,1.8599,1.8613,1.8642,1.8669,1.8706,1.8737,1.8754,1.8779,1.8808,1.8853,1.8842,1.886,1.8861,1.8885,1.8931,1.887,1.887,1.8878,1.8988,1.8995,1.9004,1.8927,1.8928,1.8929,1.8985,0,1.8613,1.8679,1.8683,1.8742,1.8773,1.8765,1.8797,1.8817,1.8826,1.8853,1.8862,1.8893,1.8877,1.8887,1.8911,1.8921,1.8953,1.8917,1.8952,1.8953,1.8943,1.9014,1.9022,1.9073,1.8992,1.8994,1.8995,0,1.8692,1.8719,1.878,1.8802,1.8816,1.8844,1.8872,1.8899,1.8921,1.8925,1.8945,1.8942,1.8978,1.8954,1.9002,1.8978,1.8992,1.8999,1.9001,1.9003,1.8975,1.9014,1.909,1.9097,1.9006,1.9005,1.9004,0,1.8737,1.8788,1.8831,1.8844,1.8872,1.8891,1.8904,1.8924,1.8942,1.8967,1.8978,1.9007,1.9021,1.9043,1.9047,1.903,1.9094,1.9071,1.9097,1.9097,1.911,1.9108,1.9186,1.9123,1.9123,1.9123,1.9123,0,1.8802,1.8839,1.8851,1.8877,1.8917,1.8922,1.8962,1.8973,1.8991,1.9017,1.9013,1.9038,1.9044,1.907,1.9074,1.9111,1.9119,1.9122,1.9122,1.9121,1.912,1.9129,1.9124,1.9125,1.9125,1.9124,1.9124,0,1.8858,1.8868,1.8913,1.8936,1.8942,1.8971,1.8989,1.9013,1.9022,1.9055,1.9063,1.9076,1.9105,1.9113,1.9149,1.9151,1.9195,1.9193,1.9187,1.9186,1.921,1.9207,1.9294,1.9305,1.9238,1.9238,1.9239,0,1.8898,1.8926,1.8952,1.8969,1.8982,1.9012,1.903,1.9035,1.9053,1.908,1.91,1.9129,1.9153,1.92,1.9212,1.9238,1.9235,1.9264,1.9239,1.9236,1.9232,1.923,1.9231,1.9268,1.9269,1.9269,1.927,0,1.8967,1.897,1.8996,1.9024,1.9046,1.9068,1.9089,1.9103,1.9111,1.9132,1.9162,1.9181,1.9216,1.9245,1.9271,1.9282,1.9276,1.9278,1.9285,1.9283,1.9277,1.9278,1.9197,1.9275,1.9275,1.9274,1.9274,1.9274,1.9014,1.9038,1.9059,1.9088,1.9104,1.9123,1.9146,1.9157,1.9183,1.9212,1.9214,1.9246,1.9265,1.93,1.9313,1.9337,1.9328,1.9339,1.9341,1.9343,1.9344,1.9275,1.9343,1.9342,1.9342,1.9342,1.9342,0,1.908,1.9093,1.912,1.9149,1.9171,1.9165,1.9187,1.9206,1.9235,1.9254,1.9277,1.931,1.9337,1.935,1.9377,1.9393,1.9391,1.94,1.9398,1.94,1.9352,1.9342,1.9401,1.9401,1.9401,1.9401,1.9401,1.9401,1.9117,1.9156,1.9161,1.9207,1.922,1.9251,1.9264,1.9281,1.9296,1.9334,1.9356,1.9365,1.9381,1.9408,1.9432,1.9435,1.9444,1.9453,1.9455,1.941,1.9403,1.9398,1.9388,1.9456,1.9456,1.95,1.95,1.9501]},{"header":{"parameterUnit":"m.s-1","parameterCategory":1,"la1":30.2991,"la2":30.254,"lo1":-89.0895,"lo2":-89.0444,"dy":0.0017,"dx":0.0017,"nx":28,"ny":28,"refTime":"2024-03-20T21:00:00:Z","depth":0,"parameterNumber":3,"parameterNumberName":"V-component_of_WINDS"},"data":[0,0,0,0,0,0,0,0,0,0,0,0,0,0,0,0,0,0,0,0,0,0,0,0,0,0,0,0,0,0,0,0,0,0,0,0,0,0,0,0,0,0,0,0,0,0,0,0,0,0,0,0,0,0,0,0,0,0,2.2727,2.2727,0,2.273,2.273,2.273,2.2686,2.2685,2.2684,2.2683,2.2685,2.2686,2.2687,0,0,0,0,0,0,0,0,0,0,0,0,0,2.2681,2.2682,2.2727,2.2728,2.2728,2.273,2.273,2.273,2.2686,2.2685,2.2683,2.2682,2.2685,2.2686,2.2687,0,0,0,0,0,0,0,0,0,0,0,0,0,2.2695,2.2683,2.2727,2.2706,2.2704,2.273,2.273,2.2731,2.2687,2.2685,2.2683,2.2681,2.2684,2.2686,2.2688,2.2735,0,0,2.2693,2.2694,0,0,0,0,0,0,0,0,2.2694,2.2696,2.2709,2.2707,2.2705,2.2706,2.2715,2.2732,2.2687,2.2693,2.2683,2.2681,2.2693,2.2694,2.2699,2.2735,2.2735,2.2693,2.2694,2.2695,2.2696,0,0,0,0,0,0,0,2.2693,2.2696,2.2729,2.2709,2.2707,2.2695,2.2695,2.2718,2.2703,2.2693,2.2689,2.269,2.2692,2.2697,2.2699,2.2735,2.2693,2.2695,2.2696,2.2697,2.2807,2.2808,0,0,0,0,0,0,2.2695,2.2696,2.2728,2.2729,2.2695,2.2698,2.2697,2.2708,2.2703,2.2701,2.2692,2.2688,2.2695,2.2697,2.2699,2.2751,2.2695,2.2697,2.2698,2.2805,2.2807,2.2809,0,0,0,0,0,0,2.2694,2.2699,2.2728,2.2711,2.2714,2.27,2.2712,2.2709,2.2714,2.2703,2.27,2.27,2.2694,2.2696,2.2725,2.2751,2.2698,2.2699,2.2803,2.2806,2.2808,2.2858,0,0,0,0,0,0,2.2693,2.2699,2.2717,2.2712,2.2715,2.2756,2.2714,2.271,2.2717,2.2712,2.2709,2.2707,2.2693,2.2723,2.2727,2.2752,2.2701,2.28,2.2804,2.2807,2.2854,2.2863,2.287,0,0,0,0,0,2.2692,2.2732,2.2718,2.2722,2.2738,2.2758,2.2759,2.2742,2.2719,2.2737,2.2729,2.2707,2.2748,2.2726,2.2731,2.2757,2.2799,2.2803,2.2807,2.2851,2.2861,2.2869,0,0,0,0,0,0,2.274,2.2731,2.2716,2.2755,2.2758,2.275,2.2772,2.2754,2.2762,2.2758,2.2735,2.2735,2.2768,2.2765,2.2742,2.2801,2.2769,2.2774,2.2801,2.281,2.2818,2.2817,2.2702,0,0,0,0,0,2.2756,2.2773,2.2763,2.2799,2.2801,2.2786,2.2794,2.2781,2.2782,2.2783,2.2778,2.278,2.2792,2.2801,2.2813,2.2854,2.2852,2.2874,2.2881,2.2888,2.2892,2.2911,2.292,2.2823,2.2823,2.2823,0,0,2.2788,2.2784,2.2797,2.2809,2.2809,2.2826,2.2788,2.2808,2.282,2.2786,2.2813,2.2809,2.281,2.2845,2.286,2.2843,2.2919,2.2893,2.2898,2.2899,2.2917,2.2926,2.2934,2.2826,2.2825,2.2825,0,0,2.2854,2.2854,2.2882,2.2883,2.2884,2.2873,2.288,2.2875,2.2871,2.2898,2.2872,2.2886,2.2909,2.291,2.2913,2.2978,2.2957,2.2982,2.3021,2.304,2.3048,2.3055,2.3076,2.3084,2.2987,2.2987,2.2987,0,2.2893,2.2919,2.29,2.2921,2.2926,2.2895,2.2923,2.2925,2.2929,2.2933,2.2915,2.2942,2.294,2.2974,2.2989,2.2994,2.2999,2.2982,2.3049,2.3055,2.3061,2.3081,2.3089,2.299,2.2989,2.2989,2.2989,0,2.2966,2.2984,2.3007,2.3011,2.3019,2.3043,2.3027,2.3037,2.3022,2.3013,2.304,2.3036,2.3046,2.3053,2.3039,2.3084,2.3073,2.3053,2.302,2.3073,2.3092,2.3099,2.2994,2.2993,2.2992,2.2991,0,0,2.3064,2.3055,2.3064,2.3064,2.3062,2.3075,2.3097,2.3106,2.3114,2.3118,2.3135,2.3154,2.3134,2.3138,2.3124,2.3141,2.3189,2.3117,2.3117,2.3129,2.3236,2.3251,2.326,2.3176,2.3177,2.3178,2.3235,0,2.3127,2.3165,2.3147,2.3186,2.3201,2.3171,2.3191,2.3191,2.3183,2.3194,2.3185,2.3198,2.3172,2.3174,2.3189,2.318,2.321,2.3176,2.319,2.3191,2.319,2.327,2.3286,2.334,2.3243,2.3244,2.3245,0,2.3206,2.3211,2.3252,2.3244,2.325,2.3268,2.3273,2.3284,2.3283,2.3276,2.3279,2.3261,2.3281,2.3249,2.3276,2.3253,2.3258,2.3254,2.3256,2.3255,2.322,2.327,2.3357,2.3365,2.3256,2.3255,2.3254,0,2.327,2.3288,2.3314,2.3316,2.3308,2.3321,2.3318,2.3315,2.3321,2.3325,2.3328,2.3335,2.3339,2.3344,2.3328,2.3307,2.3356,2.3323,2.3349,2.335,2.336,2.3359,2.3448,2.3366,2.3366,2.3366,2.3365,0,2.3341,2.3367,2.3343,2.3359,2.3386,2.3365,2.3392,2.3386,2.3383,2.3397,2.3372,2.3385,2.3363,2.3373,2.336,2.3383,2.3385,2.3379,2.3375,2.3381,2.3381,2.3382,2.3378,2.3368,2.3367,2.3367,2.3367,0,2.3418,2.3403,2.3429,2.3419,2.3417,2.3438,2.3429,2.3442,2.3432,2.3449,2.3452,2.3436,2.3447,2.3431,2.3441,2.3432,2.3463,2.3454,2.3463,2.346,2.3486,2.3483,2.3577,2.3587,2.35,2.3501,2.3502,0,2.3464,2.3483,2.3474,2.3481,2.348,2.3492,2.3497,2.3476,2.3482,2.3481,2.3494,2.3503,2.3509,2.3527,2.3516,2.3523,2.3513,2.3545,2.3514,2.3518,2.3511,2.351,2.3511,2.3551,2.3553,2.3553,2.3554,0,2.3546,2.3537,2.3546,2.3551,2.3557,2.356,2.3562,2.3569,2.3547,2.3555,2.3565,2.357,2.3578,2.3587,2.359,2.3587,2.3566,2.3564,2.357,2.3575,2.3579,2.3575,2.3479,2.3562,2.3561,2.3561,2.356,2.356,2.3608,2.3622,2.3617,2.3627,2.3625,2.3627,2.3638,2.3629,2.3637,2.3642,2.363,2.3643,2.3639,2.3641,2.364,2.3649,2.3635,2.3644,2.3646,2.3648,2.3652,2.3579,2.365,2.365,2.365,2.3649,2.3649,0,2.3687,2.3682,2.3691,2.3693,2.37,2.368,2.3679,2.3686,2.3698,2.3696,2.3702,2.3713,2.372,2.3709,2.3715,2.3724,2.3715,2.3726,2.3724,2.3724,2.3665,2.3658,2.3733,2.3733,2.3733,2.3733,2.3733,2.3733,2.3729,2.3751,2.3741,2.3762,2.3757,2.3769,2.377,2.3771,2.3769,2.3782,2.3788,2.3781,2.3775,2.3779,2.3785,2.3781,2.3783,2.3798,2.3791,2.3736,2.3728,2.372,2.3714,2.3799,2.3799,2.3848,2.3849,2.3849]}]]